IVALO current weather conditions

sailwx.info

Wind from 120 at 3 knots

Air temperature 6.0° C
Dewpoint 4.0° C

Last reported at 2014-Sep-17 20:50 UTC.
Time now 2014-Sep-17 21:38 UTC

Location: N 68°37' E 027°25'.
View on Google Maps.

See reports from other nearby stations

  
Tides and Currents Weather Stations Pressure Air Temp Water Temp Dewpoint Dewpoint Depression Visibility Wind Speed Wind Dir Waves Ship Positions
date/time (UTC)wind fromknots sea level pressurealtimeterstation pressurevisibilityair tempwater tempwave heightnotes
2014-Sep-17 20:50 120 3 6.0
2014-Sep-17 20:20 190 1 6.0
2014-Sep-17 19:50 7.0
2014-Sep-17 19:20 220 6 9.0
2014-Sep-17 18:50 210 6 8.0
2014-Sep-17 18:20 270 5 8.0
2014-Sep-17 17:50 220 7 10.0
2014-Sep-17 17:20 11.0
2014-Sep-17 16:50 220 2 10.0
2014-Sep-17 16:20 11.0
2014-Sep-17 15:50 240 8 12.0
2014-Sep-17 15:20 230 12 12.0
2014-Sep-17 14:50 220 11 13.0
2014-Sep-17 14:20 230 11 13.0
2014-Sep-17 13:50 230 10 14.0
2014-Sep-17 13:20 210 9 13.0
2014-Sep-17 12:50 220 8 14.0
2014-Sep-17 12:20 210 10 13.0
2014-Sep-17 11:50 210 10 12.0
2014-Sep-17 11:20 200 12 12.0
2014-Sep-17 10:50 210 11 12.0
2014-Sep-17 10:20 200 11 12.0
2014-Sep-17 09:50 180 10 12.0
2014-Sep-17 09:20 210 10 12.0
2014-Sep-17 08:50 220 9 12.0
2014-Sep-17 08:20 210 7 10.0
2014-Sep-17 07:50 220 6 9.0
2014-Sep-17 07:20 210 6 7.0
2014-Sep-17 06:50 200 7 7.0
2014-Sep-17 06:20 210 8 6.0
2014-Sep-17 05:50 210 7 5.0
2014-Sep-17 05:20 210 6 5.0
2014-Sep-17 04:50 210 5 3.0
2014-Sep-17 04:20 250 3 1.0
2014-Sep-17 03:50 230 4 1.0
2014-Sep-17 03:20 240 4 1.0
2014-Sep-17 02:50 200 5 4.0
2014-Sep-17 02:20 250 6 -0.0
2014-Sep-17 01:50 250 3 1.0
2014-Sep-17 01:20 250 3 1.0
2014-Sep-17 00:50 240 5 2.0
2014-Sep-17 00:20 240 4 2.0
2014-Sep-16 23:50 250 3 3.0
2014-Sep-16 23:20 260 2 3.0
2014-Sep-16 22:50 260 1 4.0
2014-Sep-16 22:20 240 3 4.0
2014-Sep-16 21:50 250 2 4.0
2014-Sep-16 21:20 230 2 5.0
2014-Sep-16 20:50 240 2 5.0
2014-Sep-16 20:20 230 2 6.0
2014-Sep-16 19:50 6.0
2014-Sep-16 19:20 230 2 6.0
2014-Sep-16 18:50 230 1 6.0
2014-Sep-16 18:20 7.0
2014-Sep-16 17:50 7.0
2014-Sep-16 17:20 8.0
2014-Sep-16 16:50 10.0
2014-Sep-16 16:20 11.0
2014-Sep-16 15:50 030 1 11.0
2014-Sep-16 15:20 110 1 12.0
2014-Sep-16 14:50 120 2 13.0
2014-Sep-16 14:20 13.0
2014-Sep-16 13:50 230 2 13.0
2014-Sep-16 13:20 190 3 14.0
2014-Sep-16 12:50 200 4 15.0
2014-Sep-16 12:20 210 4 16.0
2014-Sep-16 11:50 16.0
2014-Sep-16 11:20 220 6 15.0
2014-Sep-16 10:50 210 5 15.0
2014-Sep-16 10:20 200 6 14.0
2014-Sep-16 09:50 210 7 14.0
2014-Sep-16 09:20 210 5 13.0
2014-Sep-16 08:50 210 6 12.0
2014-Sep-16 08:20 230 3 11.0
2014-Sep-16 07:50 230 3 9.0
2014-Sep-16 07:20 240 4 7.0
2014-Sep-16 06:50 220 4 6.0
2014-Sep-16 06:20 240 4 4.0
2014-Sep-16 05:50 220 5 2.0
2014-Sep-16 05:20 240 6 1.0
2014-Sep-16 04:50 230 5 -0.0
2014-Sep-16 04:20 240 6 -0.0
2014-Sep-16 03:50 240 4 -0.0
2014-Sep-16 03:20 250 5 1.0
2014-Sep-16 02:50 230 5 2.0
2014-Sep-16 02:20 220 5 3.0
2014-Sep-16 01:50 230 4 3.0
2014-Sep-16 01:20 260 5 4.0
2014-Sep-16 00:50 240 5 5.0
2014-Sep-16 00:20 250 3 5.0
2014-Sep-15 23:50 190 1 6.0
2014-Sep-15 23:20 6.0
2014-Sep-15 22:50 230 4 6.0
2014-Sep-15 22:20 180 2 7.0
2014-Sep-15 21:50 6.0
2014-Sep-15 21:20 250 1 6.0